Weather History for Gwinn, MI

Change the Weather History Date:

Sunday, April 13, 2014

  Actual Average (KESC) Record (KESC)
Temperature  
Mean Temperature 37 °F -  
Max Temperature 42 °F 45 °F 60 °F (2005)
Min Temperature 32 °F 31 °F 17 °F (1975)
Degree Days  
Heating Degree Days 28    
Moisture  
Dew Point 34 °F    
Average Humidity 92    
Maximum Humidity 100    
Minimum Humidity 76    
Precipitation  
Precipitation 0.00 in - - ()
Sea Level Pressure  
Sea Level Pressure 29.78 in    
Wind  
Wind Speed 7 mph (NNE)    
Max Wind Speed 16 mph    
Max Gust Speed 21 mph    
Visibility 5 miles    
Events Fog , Snow    
Averages and records for this station are not official NWS values.
T = Trace of Precipitation, MM = Missing Value Source: NWS Daily Summary

Daily Weather History Graph

Daily Weather History Graph

Search for Another Location

Airport:

Trip Planner

Search our weather history database for the weather conditions in past years. The results will help you decide how hot, cold, wet, or windy it might be!

Date:

Astronomy

Apr. 13, 2014 Rise Set
Actual Time 7:06 AM EDT 8:34 PM EDT
Civil Twilight 6:35 AM EDT 9:05 PM EDT
Nautical Twilight 5:57 AM EDT 9:44 PM EDT
Astronomical Twilight 5:16 AM EDT 10:24 PM EDT
Moon 7:07 PM EDT (4/13) 6:10 AM EDT (4/13)
Length of Visible Light 14h 30m
Length of Day
13h 28m
Waxing Gibbous, 97% of the Moon is Illuminated
Apr 13
Waxing Gibbous
Apr 15
Full
Apr 22
Last Quarter
Apr 29
New
May 6
First Quarter

Hourly Weather History & Observations

Time (EDT) Temp. Windchill Dew Point Humidity Pressure Visibility Wind Dir Wind Speed Gust Speed Precip Events Conditions
12:17 AM 36.1 °F 29.3 °F 34.7 °F 94% 29.84 in 5.0 mi East 9.2 mph - N/A   Overcast
12:36 AM 36.0 °F 30.3 °F 34.7 °F 95% 29.82 in 5.0 mi East 6.9 mph - N/A   Overcast
12:56 AM 36.0 °F 30.3 °F 34.9 °F 96% 29.80 in 4.0 mi East 6.9 mph - N/A   Overcast
1:17 AM 36.0 °F 32.1 °F 34.9 °F 96% 29.80 in 3.0 mi ENE 4.6 mph - N/A   Overcast
1:36 AM 36.0 °F 32.1 °F 35.1 °F 97% 29.81 in 3.0 mi ENE 4.6 mph - N/A   Overcast
1:57 AM 35.8 °F - 34.9 °F 97% 29.81 in 2.0 mi Calm Calm - N/A   Overcast
2:16 AM 35.8 °F 33.0 °F 34.9 °F 97% 29.81 in 1.5 mi ENE 3.5 mph - N/A   Overcast
2:36 AM 35.8 °F - 35.1 °F 97% 29.80 in 1.0 mi Calm Calm - N/A   Overcast
2:56 AM 35.8 °F 33.0 °F 35.1 °F 97% 29.78 in 1.2 mi East 3.5 mph - N/A   Overcast
3:16 AM 35.8 °F - 35.1 °F 97% 29.78 in 2.0 mi Calm Calm - N/A   Overcast
3:37 AM 34.2 °F 30.0 °F 33.3 °F 97% 29.78 in 0.5 mi North 4.6 mph - N/A Fog Fog
3:56 AM 34.2 °F 31.2 °F 33.4 °F 97% 29.78 in 0.5 mi North 3.5 mph - N/A Fog Fog
4:16 AM 33.8 °F 29.6 °F 33.1 °F 97% 29.76 in 0.5 mi NNE 4.6 mph - N/A Fog Fog
4:36 AM 33.6 °F 28.4 °F 32.9 °F 97% 29.75 in 0.5 mi NNE 5.8 mph - N/A Fog Fog
4:57 AM 33.3 °F 27.1 °F 32.9 °F 99% 29.75 in 0.2 mi NNE 6.9 mph - N/A Fog Fog
5:16 AM 33.3 °F 27.1 °F 32.5 °F 97% 29.75 in 0.2 mi NNE 6.9 mph - N/A Fog Fog
5:37 AM 32.9 °F 25.9 °F 32.2 °F 97% 29.74 in 0.2 mi North 8.1 mph - N/A Snow Light Snow
5:56 AM 32.5 °F 24.8 °F 32.0 °F 98% 29.74 in 0.2 mi North 9.2 mph - N/A Snow Light Snow
6:51 AM 32.0 °F 28.7 °F 32.0 °F 100% 29.75 in 0.2 mi NNE 3.5 mph - N/A Fog Fog
7:45 AM 32.0 °F 27.5 °F 32.0 °F 100% 29.75 in 0.2 mi North 4.6 mph - N/A Fog Fog
9:45 AM 33.8 °F - 33.8 °F 100% 29.78 in 1.2 mi Calm Calm - N/A   Overcast
10:45 AM 37.4 °F 32.1 °F 37.4 °F 100% 29.78 in 10.0 mi NNW 6.9 mph - N/A   Overcast
11:45 AM 39.2 °F 34.2 °F 37.4 °F 93% 29.79 in 10.0 mi NNW 6.9 mph - N/A   Overcast
12:45 PM 42.8 °F 38.0 °F 39.2 °F 87% 29.76 in 10.0 mi NNE 8.1 mph - N/A   Mostly Cloudy
1:45 PM 42.8 °F 37.0 °F 37.4 °F 81% 29.77 in 10.0 mi NNE 10.4 mph - N/A   Clear
2:50 PM 42.8 °F 37.5 °F 35.6 °F 76% 29.81 in 10.0 mi East 9.2 mph - N/A   Clear
3:45 PM 42.8 °F 37.5 °F 37.4 °F 81% 29.80 in 10.0 mi ENE 9.2 mph - N/A   Clear
4:45 PM 42.8 °F 36.2 °F 37.4 °F 81% 29.79 in 10.0 mi NNE 12.7 mph - N/A   Clear
5:50 PM 41.0 °F 34.3 °F 35.6 °F 81% 29.79 in 10.0 mi NE 11.5 mph 19.6 mph N/A   Clear
6:55 PM 37.4 °F 32.1 °F 33.8 °F 87% 29.80 in 10.0 mi NE 6.9 mph - N/A   Mostly Cloudy
7:55 PM 37.4 °F 30.8 °F 33.8 °F 87% 29.80 in 10.0 mi NNE 9.2 mph - N/A   Overcast
8:55 PM 37.4 °F 30.3 °F 33.8 °F 87% 29.77 in 10.0 mi North 10.4 mph - N/A   Overcast
9:50 PM 37.4 °F 30.8 °F 33.8 °F 87% 29.79 in 10.0 mi North 9.2 mph - N/A   Overcast
10:16 PM 37.4 °F 30.8 °F 33.3 °F 85% 29.79 in 10.0 mi North 9.2 mph - N/A   Overcast
10:37 PM 37.4 °F 30.8 °F 33.1 °F 84% 29.79 in 10.0 mi North 9.2 mph - N/A   Overcast
10:56 PM 37.0 °F 29.8 °F 32.9 °F 85% 29.78 in 10.0 mi North 10.4 mph - N/A   Overcast
11:17 PM 37.0 °F 27.7 °F 32.9 °F 85% 29.76 in 10.0 mi North 16.1 mph - N/A   Overcast
11:36 PM 37.4 °F 28.2 °F 32.5 °F 83% 29.75 in 10.0 mi North 16.1 mph 20.7 mph N/A   Overcast
11:56 PM 37.4 °F 29.3 °F 32.0 °F 81% 29.75 in 10.0 mi North 12.7 mph 18.4 mph N/A   Overcast